|
NORAD ID: 9738 Int'l Code: 1977-004B
Perigee: 981.9 km
Apogee: 1,006.2 km
Inclination: 83.0 °
Period: 104.8 minutes
Semi major axis: 7365 km
Launch date: January 20, 1977
Source: Commonwealth of Independent States (former USSR) (CIS)
Note: This is a ROCKET BODY
Two Line Element Set (TLE):
1 09738U 77004B 13166.17312481 .00000017 00000-0 22606-5 0 6715
2 09738 082.9600 021.3050 0016492 021.7255 127.4331 13.73528127824058
Source:
NASA's NSSDC Master Catalog entry for SL-8 R/B
|